Location: Unspecified
(0.0000°N, 0.0000°E)
Time: 03:38:43
(UTC+00:00)

Vanguard 1 - Pass Details

Date: 14 December 2017
Orbit: 649 x 3834 km, 34.3° (Epoch: 17 January)

Event Time Altitude Azimuth Distance (km) Brightness Sun altitude
Rises 01:32:30 0° 207° (SSW) 5,157 13.9 -56.8°
Reaches altitude 10° 01:37:16 10° 188° (S) 4,714 13.7 -55.9°
Maximum altitude 01:46:19 19° 148° (SSE) 4,914 13.9 -54.3°
Drops below altitude 10° 01:58:22 10° 110° (ESE) 6,492 14.6 -52.0°
Sets 02:07:00 0° 95° (E) 7,870 15.2 -50.3°
